Regional Weather Roundup
Issued by NWS San Diego, CA

Home | Current Version | Previous Version | Text Only | Print | Product List | Glossary On
Versions: 1 2 3 4 5 6 7 8 9 10 11 12 13 14 15 16 17 18 19 20 21 22 23 24 25 26 27 28 29 30 31 32 33 34 35 36 37 38 39 40 41 42 43 44 45 46 47 48 49 50
000
ASUS46 KSGX 031011
RWRSGX

SAN DIEGO HOURLY WEATHER ROUNDUP
NATIONAL WEATHER SERVICE SAN DIEGO CA
300 AM PDT MON AUG 03 2015

NOTE: "FAIR" INDICATES FEW OR NO CLOUDS BELOW 12,000 FEET WITH NO
SIGNIFICANT WEATHER AND/OR OBSTRUCTIONS TO VISIBILITY.

CAZ042-043-060-061-PZZ750-775-031100-

GREATER SAN DIEGO AREA

CITY           SKY/WX    TMP DP  RH WIND       PRES   REMARKS
LINDBERGH FLD  CLOUDY    69  62  78 W5        29.89R
POINT LOMA       N/A     67  62  85 W6          N/A
NATIONAL CITY    N/A     70  65  84 CALM      29.88S
CHULA VISTA      N/A     69  65  89 CALM      29.81R
IMPERIAL BEACH CLOUDY   N/A N/A N/A SW3       29.88R
BROWN FIELD    CLOUDY    67  64  90 CALM      29.88S
MIRAMAR MCAS   CLOUDY    70  62  76 CALM      29.88S
MONTGOMERY FLD CLOUDY    68  63  84 SW5       29.89R

$$

NORTH SAN DIEGO COUNTY

CITY           SKY/WX    TMP DP  RH WIND       PRES   REMARKS
CAMP PENDLETON CLOUDY    70  63  78 CALM      29.87S
OCEANSIDE AP   CLOUDY    71  64  78 SW3       29.86S
VISTA            N/A     67  62  85 CALM      29.85S
CARLSBAD       CLOUDY    68  64  87 CALM      29.87S
DEL MAR          N/A     68  65  90 CALM      29.89S
FALLBROOK        N/A     66  66 100 CALM      29.88R
ESCONDIDO        N/A     67  64  88 SW3       29.89S
POWAY            N/A     67  63  87 CALM      29.89R

$$

EAST SAN DIEGO COUNTY

CITY           SKY/WX    TMP DP  RH WIND       PRES   REMARKS
RAMONA         FOG       60  59  96 W3        29.90S VSB 1/4
SANTEE LAKES     N/A     67  64  89 CALM      29.87R
LA MESA          N/A     67  64  90 CALM      29.80S
JAMUL            N/A     64  62  92 CALM      29.87R
DESCANSO N       N/A     60  45  58 E6        29.72S
CAMPO            N/A     58  53  84 NE5       29.91F

$$

ORANGE COUNTY AND THE LOS ANGELES BASIN

CITY           SKY/WX    TMP DP  RH WIND       PRES   REMARKS
JOHN WAYNE AP  CLOUDY    69  63  81 CALM      29.87S
SANTA ANA        N/A     70  65  83 CALM      29.82F
HUNTINGTON BCH   N/A     68  66  92 CALM      29.89S
LOS ALAMITOS   FAIR      67  65  93 S2        29.87S
FULLERTON      CLOUDY    70  65  84 SE3       29.87R
LONG BEACH     CLEAR     70  64  81 S3        29.87R
L.A. AP        CLEAR     68  63  84 CALM      29.87S
L.A. DOWNTOWN  CLEAR     68  62  81 CALM      29.86S

$$

THE INLAND EMPIRE

CITY           SKY/WX    TMP DP  RH WIND       PRES   REMARKS
CORONA         PTCLDY    66  62  87 CALM      29.89S
CHINO          CLEAR     67  63  87 CALM      29.89S
ONTARIO        PTCLDY    67  61  81 W5        29.88S
RIVERSIDE AP   CLEAR     69  63  81 CALM      29.88S
MORENO VALLEY    N/A     67  65  94 CALM      29.85S
MARCH ARB      CLEAR     66  63  90 CALM      29.90S
HORSETHIEF CYN   N/A     65  57  73 S3        29.88S
PERRIS           N/A     68  63  85 CALM      29.90S
MENIFEE          N/A     68  64  86 SE1       29.95S
HEMET EAST       N/A     67  57  68 CALM      29.87S
FRENCH VALLEY  FAIR      64  61  88 CALM      29.90F
TEMECULA         N/A     65  63  93 CALM      29.86S

$$

SAN BERNARDINO AND RIVERSIDE COUNTY MOUNTAINS

CITY           SKY/WX    TMP DP  RH WIND       PRES   REMARKS
BIG BEAR AP    CLEAR     50  32  50 CALM      30.22S
ANGELUS OAKS     N/A     63  37  39 CALM      29.73S
PINE COVE        N/A     69  29  23 CALM      29.80F

$$

SOUTHERN DESERT INCLUDING THE COACHELLA VALLEY

CITY           SKY/WX    TMP DP  RH WIND       PRES   REMARKS
PALM SPRINGS   CLEAR     84  59  42 SE6       29.74S
THOUSAND PALMS   N/A     87  56  33 NW13      29.70R
THERMAL        CLEAR     88  57  34 N12       29.67S
BLYTHE         CLEAR     91  50  24 S6        29.71S
IMPERIAL AP    CLEAR     88  41  19 NE5       29.68R
EL CENTRO NAS  CLEAR     86  38  18 NW7       29.69F
YUMA AZ        CLEAR     89  55  31 CALM      29.71S

$$

UPPER DESERT

CITY           SKY/WX    TMP DP  RH WIND       PRES   REMARKS
VICTORVILLE AP CLEAR     72  43  35 CALM      29.94S
HESPERIA         N/A     69  53  57 CALM      29.88S
APPLE VALLEY     N/A     67  49  51 CALM      30.00S
PALMDALE       CLEAR     73  43  33 SW8       29.92S
LANCASTER      CLEAR     75  49  39 W14       29.91S
EDWARDS AFB    CLEAR     69  47  45 SW9       29.88S
DAGGETT        CLEAR     79  44  28 NW12      29.86S
29 PALMS N     CLEAR     81  42  25 NW6       29.91S
NEEDLES        CLEAR     92  48  22 CALM      29.74R

$$

REGIONAL REPORTS

CITY           SKY/WX    TMP DP  RH WIND       PRES   REMARKS
SANTA BARBARA  CLEAR     68  62  81 E7        29.84R
SANDBERG       CLEAR     67  50  54 N14       30.06S
LAS VEGAS NV   CLEAR     87  39  18 S6        29.78S
PHOENIX AZ     CLEAR     92  57  30 E5        29.76R
TIJUANA        CLOUDY    68  61  77 CALM      29.90
ENSENADA NW      N/A     68  32  26 W9        29.85R

$$

OFFSHORE ISLANDS

CITY           SKY/WX    TMP DP  RH WIND       PRES   REMARKS
CATALINA ARPT  CLEAR     63  56  78 E3        29.91F
SAN NICOLAS IS PTCLDY   N/A N/A N/A NW26G35   29.88S

$$

MARINE AND OFFSHORE BUOY REPORTS

STATION/POSITION SKY/WX   TEMP    WIND        PRES    SWELL
                          AIR SEA DIR/SP/G            HT/PER/DIR
                          (F)     (DEG/KT/KT) (MB)    (FT/S/D)
TANNER BANKS               67 68  310/ 21/ 25 1012.1F
S CLEMENTE BASIN           67 70  300/ 12/ 14 1011.3F   3/300/ 7
SAN NICOLAS IS.               65                N/A     2/190/15
SO. S. ROSA ISLA           64 66  310/ 23/ 29 1010.9R
W. S. BARBARA CH           62 61  330/ 21/ 23 1011.3R   2/260/16
M. S. BARBARA CH           68 68   50/  6/  8 1010.9R
S. MONICA BASIN            68 72   30/  6/  8 1010.8F   3/270/ 6
S PEDRO CHANNEL               72                N/A
DANA POINT                    71                N/A     2/190/17
OCEANSIDE OFFSHR              72                N/A     2/220/17
TORREY PINES OTR              73                N/A     2/210/12
LA JOLLA 1                 69 72  290/  1/  2 1011.3F
MISSION BAY BUOY              71                N/A     2/210/15
SAN DIEGO BAY                 74              1011.9F
POINT LOMA SOUTH              72                N/A     2/210/15

$$




USA.gov is the U.S. government's official web portal to all federal, state and local government web resources and services.